Date String (YYYY-MM-DD hh:mm:ss) UTC,Instrument flags,Ambient pressure (hPa),Sample flow (lpm),Bypass flow (lpm),Sample temperature (°C),Ambient temperature (°C),ASC tube jacket temperature (°C),LED temperature (°C),Box temperature (°C),Sample RH (%),Span deviation,Mass concentration (μg/m³),Mass concentration (μg/m³),Mass concentration (μg/m³)
DateTimeUTC,F1_M11,P_M11,Q1_M11,Q2_M11,T1_M11,T2_M11,T3_M11,T4_M11,T5_M11,U1_M11,ZSPAN_M11,X0_M11,X2_M11,X1_M11
2022-09-04 00:00:00,,0832.3,5.00,0.00,29.5,27.0,00.0,38.1,31.3,20.5,0000.0,0008.70,0005.14,0004.63
2022-09-04 00:01:00,,0832.4,5.00,0.00,29.5,27.4,00.0,38.1,31.2,20.6,0000.0,0008.79,0005.16,0004.64
2022-09-04 00:02:00,,0832.3,5.00,0.00,29.5,27.7,00.0,38.1,31.2,20.5,0000.0,0008.85,0005.14,0004.64
2022-09-04 00:03:00,,0832.3,5.01,0.00,29.5,27.9,00.0,38.1,31.3,20.5,0000.0,0008.85,0005.15,0004.65
2022-09-04 00:04:00,,0832.3,4.98,0.00,29.5,28.2,00.0,38.1,31.4,20.4,0000.0,0008.59,0005.16,0004.67
2022-09-04 00:05:00,,0832.3,5.00,0.00,29.6,28.4,00.0,38.1,31.5,20.4,0000.0,0008.42,0005.15,0004.68
2022-09-04 00:06:00,,0832.3,4.99,0.00,29.6,27.8,00.0,38.2,31.5,20.3,0000.0,0008.33,0005.17,0004.69
2022-09-04 00:07:00,,0832.3,5.01,0.00,29.6,26.7,00.0,38.2,31.3,20.5,0000.0,0008.60,0005.20,0004.71
2022-09-04 00:08:00,,0832.3,5.00,0.00,29.5,26.6,00.0,38.1,31.3,20.4,0000.0,0008.73,0005.22,0004.71
2022-09-04 00:09:00,,0832.3,5.00,0.00,29.5,26.9,00.0,38.1,31.2,20.3,0000.0,0008.79,0005.25,0004.72
2022-09-04 00:10:00,,0832.3,4.99,0.00,29.4,27.2,00.0,38.1,31.1,20.3,0000.0,0008.82,0005.26,0004.73
2022-09-04 00:11:00,,0832.3,5.00,0.00,29.4,27.5,00.0,38.1,31.2,20.4,0000.0,0008.93,0005.26,0004.74
2022-09-04 00:12:00,,0832.3,5.00,0.00,29.5,27.8,00.0,38.1,31.3,20.3,0000.0,0009.14,0005.26,0004.74
2022-09-04 00:13:00,,0832.3,5.00,0.00,29.5,28.0,00.0,38.1,31.4,20.3,0000.0,0009.24,0005.26,0004.75
2022-09-04 00:14:00,,0832.3,5.00,0.00,29.6,28.3,00.0,38.1,31.5,20.3,0000.0,0009.19,0005.23,0004.75
2022-09-04 00:15:00,,0832.4,5.01,0.00,29.6,28.5,00.0,38.1,31.5,20.7,0000.0,0009.22,0005.20,0004.74
2022-09-04 00:16:00,,0832.3,4.99,0.00,29.6,28.0,00.0,38.2,31.6,20.5,0000.0,0009.39,0005.24,0004.75
2022-09-04 00:17:00,,0832.3,5.01,0.00,29.6,26.7,00.0,38.2,31.4,20.4,0000.0,0009.42,0005.25,0004.75
2022-09-04 00:18:00,,0832.3,5.01,0.00,29.6,26.5,00.0,38.2,31.4,20.5,0000.0,0009.26,0005.24,0004.75
2022-09-04 00:19:00,,0832.3,4.99,0.00,29.5,26.8,00.0,38.1,31.3,20.5,0000.0,0009.07,0005.22,0004.75
2022-09-04 00:20:00,,0832.3,5.01,0.00,29.5,27.1,00.0,38.1,31.2,20.5,0000.0,0009.08,0005.22,0004.77
2022-09-04 00:21:00,,0832.3,4.99,0.00,29.5,27.4,00.0,38.1,31.2,20.4,0000.0,0009.50,0005.25,0004.78
2022-09-04 00:22:00,,0832.3,5.01,0.00,29.5,27.7,00.0,38.1,31.3,20.6,0000.0,0010.05,0005.29,0004.80
2022-09-04 00:23:00,,0832.4,5.01,0.00,29.5,28.0,00.0,38.1,31.3,20.8,0000.0,0010.13,0005.31,0004.81
2022-09-04 00:24:00,,0832.3,4.99,0.00,29.6,28.2,00.0,38.1,31.4,20.8,0000.0,0010.19,0005.34,0004.82
2022-09-04 00:25:00,,0832.4,5.01,0.00,29.6,28.4,00.0,38.2,31.5,20.7,0000.0,0010.21,0005.35,0004.83
2022-09-04 00:26:00,,0832.3,5.00,0.00,29.7,28.1,00.0,38.2,31.6,20.5,0000.0,0010.35,0005.37,0004.84
2022-09-04 00:27:00,,0832.4,5.01,0.00,29.6,26.9,00.0,38.2,31.4,20.6,0000.0,0010.23,0005.34,0004.86
2022-09-04 00:28:00,,0832.4,5.00,0.00,29.6,26.5,00.0,38.2,31.4,21.4,0000.0,0010.19,0005.32,0004.86
2022-09-04 00:29:00,,0832.4,5.00,0.00,29.5,26.8,00.0,38.1,31.3,21.8,0000.0,0010.21,0005.32,0004.85
2022-09-04 00:30:00,,0832.3,5.01,0.00,29.5,27.0,00.0,38.1,31.2,21.8,0000.0,0010.25,0005.36,0004.85
2022-09-04 00:31:00,,0832.3,5.00,0.00,29.5,27.4,00.0,38.1,31.2,23.5,0000.0,0010.26,0005.33,0004.84
2022-09-04 00:32:00,,0832.3,5.00,0.00,29.5,27.7,00.0,38.1,31.3,24.1,0000.0,0010.11,0005.36,0004.84
2022-09-04 00:33:00,,0832.3,5.01,0.00,29.5,28.0,00.0,38.1,31.4,24.0,0000.0,0009.83,0005.39,0004.84
2022-09-04 00:34:00,,0832.3,5.02,0.00,29.6,28.2,00.0,38.1,31.4,23.5,0000.0,0009.61,0005.41,0004.86
2022-09-04 00:35:00,,0832.4,4.98,0.00,29.6,28.4,00.0,38.2,31.5,23.3,0000.0,0010.40,0005.42,0004.87
2022-09-04 00:36:00,,0832.3,5.00,0.00,29.7,28.3,00.0,38.2,31.6,22.4,0000.0,0010.98,0005.44,0004.88
2022-09-04 00:37:00,,0832.4,4.99,0.00,29.6,27.1,00.0,38.2,31.5,23.1,0000.0,0010.82,0005.46,0004.89
2022-09-04 00:38:00,,0832.3,5.00,0.00,29.6,26.6,00.0,38.2,31.4,23.6,0000.0,0011.18,0005.51,0004.90
2022-09-04 00:39:00,,0832.3,5.00,0.00,29.5,26.8,00.0,38.2,31.4,23.1,0000.0,0011.51,0005.53,0004.91
2022-09-04 00:40:00,,0832.3,5.00,0.00,29.5,27.1,00.0,38.1,31.2,23.6,0000.0,0011.62,0005.55,0004.94
2022-09-04 00:41:00,,0832.3,4.99,0.00,29.5,27.4,00.0,38.1,31.2,24.1,0000.0,0011.93,0005.56,0004.96
2022-09-04 00:42:00,,0832.3,5.00,0.00,29.5,27.7,00.0,38.1,31.3,24.1,0000.0,0012.80,0005.60,0004.98
2022-09-04 00:43:00,,0832.3,5.01,0.00,29.5,28.0,00.0,38.1,31.3,23.9,0000.0,0013.09,0005.59,0004.98
2022-09-04 00:44:00,,0832.3,5.01,0.00,29.6,28.2,00.0,38.1,31.4,23.3,0000.0,0012.96,0005.57,0004.98
2022-09-04 00:45:00,,0832.2,4.98,0.00,29.6,28.4,00.0,38.2,31.5,23.4,0000.0,0012.66,0005.56,0004.98
2022-09-04 00:46:00,,0832.3,5.00,0.00,29.7,28.3,00.0,38.2,31.6,23.4,0000.0,0011.63,0005.54,0004.97
2022-09-04 00:47:00,,0832.3,4.99,0.00,29.6,27.2,00.0,38.2,31.5,23.1,0000.0,0011.04,0005.55,0004.97
2022-09-04 00:48:00,,0832.3,5.01,0.00,29.6,26.5,00.0,38.2,31.4,22.7,0000.0,0011.54,0005.59,0004.97
2022-09-04 00:49:00,,0832.3,5.00,0.00,29.6,26.7,00.0,38.2,31.3,22.9,0000.0,0011.37,0005.58,0004.97
2022-09-04 00:50:00,,0832.2,5.00,0.00,29.5,26.9,00.0,38.1,31.2,23.4,0000.0,0011.05,0005.60,0004.97
2022-09-04 00:51:00,,0832.2,5.00,0.00,29.5,27.3,00.0,38.1,31.2,23.5,0000.0,0011.15,0005.61,0004.97
2022-09-04 00:52:00,,0832.3,5.00,0.00,29.5,27.6,00.0,38.1,31.2,23.7,0000.0,0010.93,0005.62,0004.96
2022-09-04 00:53:00,,0832.2,5.01,0.00,29.5,27.9,00.0,38.1,31.3,23.8,0000.0,0010.16,0005.61,0004.97
2022-09-04 00:54:00,,0832.2,4.98,0.00,29.5,28.1,00.0,38.1,31.4,23.8,0000.0,0010.28,0005.61,0004.98
2022-09-04 00:55:00,,0832.3,5.01,0.00,29.6,28.3,00.0,38.2,31.5,23.7,0000.0,0011.38,0005.61,0004.98
2022-09-04 00:56:00,,0832.3,4.99,0.00,29.6,28.4,00.0,38.2,31.6,23.5,0000.0,0012.30,0005.61,0004.98
2022-09-04 00:57:00,,0832.2,5.02,0.00,29.6,27.4,00.0,38.2,31.5,23.4,0000.0,0012.58,0005.65,0004.99
2022-09-04 00:58:00,,0832.2,5.01,0.00,29.6,26.5,00.0,38.2,31.4,23.2,0000.0,0012.93,0005.66,0005.00
2022-09-04 00:59:00,,0832.2,5.00,0.00,29.5,26.6,00.0,38.2,31.3,23.5,0000.0,0012.53,0005.64,0005.00
